| time (UTC) | temp F | wind direction | speed knots | gust knots | rain 1hr in | rain 24hr in | rain mn in | humidity % | barometer mb |
| 20260504213112 | 70 | 175 | 0.9 | 12.2 | 0.00 | 0.00 | 0.00 | 49 | 1008.8 |
| 20260504211555 | 70 | 171 | 1.7 | 6.1 | 0.00 | 0.00 | 0.00 | 47 | 1008.9 |
| 20260504210053 | 70 | 163 | 1.7 | 11.3 | 0.00 | 0.00 | 0.00 | 51 | 1009.1 |
| 20260504204558 | 68 | 177 | 2.6 | 10.4 | 0.00 | 0.00 | 0.00 | 54 | 1009.3 |
| 20260504203052 | 69 | 171 | 2.6 | 7.8 | 0.00 | 0.00 | 0.00 | 49 | 1009.6 |
| 20260504201548 | 69 | 219 | 3.5 | 8.7 | 0.00 | 0.00 | 0.00 | 48 | 1009.8 |
| 20260504200046 | 69 | 192 | 3.5 | 11.3 | 0.00 | 0.00 | 0.00 | 45 | 1010.1 |
| 20260504194554 | 68 | 180 | 3.5 | 8.7 | 0.00 | 0.00 | 0.00 | 52 | 1010.2 |
| 20260504193043 | 68 | 194 | 5.2 | 11.3 | 0.00 | 0.00 | 0.00 | 48 | 1010.4 |
| 20260504191542 | 69 | 191 | 2.6 | 11.3 | 0.00 | 0.00 | 0.00 | 44 | 1010.4 |
| 20260504190040 | 69 | 163 | 3.5 | 15.6 | 0.00 | 0.00 | 0.00 | 46 | 1010.5 |
| 20260504184539 | 69 | 98 | 3.5 | 10.4 | 0.00 | 0.00 | 0.00 | 46 | 1010.7 |
| 20260504183036 | 68 | 207 | 6.1 | 16.5 | 0.00 | 0.00 | 0.00 | 44 | 1010.9 |
| 20260504181538 | 68 | 126 | 6.1 | 10.4 | 0.00 | 0.00 | 0.00 | 46 | 1010.8 |
| 20260504180038 | 67 | 153 | 2.6 | 13.9 | 0.00 | 0.00 | 0.00 | 54 | 1011.1 |
| 20260504174532 | 66 | 202 | 7.0 | 13.0 | 0.00 | 0.00 | 0.00 | 51 | 1011.1 |
| 20260504173033 | 67 | 155 | 5.2 | 14.8 | 0.00 | 0.00 | 0.00 | 49 | 1011.5 |
| 20260504171532 | 66 | 196 | 4.3 | 8.7 | 0.00 | 0.00 | 0.00 | 50 | 1011.5 |
| 20260504081517 | 46 | 143 | 0.9 | 5.2 | 0.00 | 0.00 | 0.00 | 63 | 1014.9 |
| 20260504050001 | 44 | 128 | 0.0 | 1.7 | 0.00 | 0.00 | 0.00 | 67 | 1014.9 |
| 20260504044500 | 44 | 121 | 0.0 | 1.7 | 0.00 | 0.00 | 0.00 | 66 | 1015.0 |
| 20260504043112 | 45 | 121 | 0.0 | 2.6 | 0.00 | 0.00 | 0.00 | 65 | 1014.9 |
| 20260504041556 | 45 | 123 | 0.0 | 3.5 | 0.00 | 0.00 | 0.00 | 64 | 1014.7 |
| 20260504040113 | 45 | 121 | 0.0 | 3.5 | 0.00 | 0.00 | 0.00 | 63 | 1014.7 |
| 20260504034554 | 45 | 158 | 0.0 | 2.6 | 0.00 | 0.00 | 0.00 | 63 | 1014.7 |
| 20260504033053 | 46 | 102 | 0.0 | 1.7 | 0.00 | 0.00 | 0.00 | 62 | 1014.6 |
| 20260504031557 | 46 | 153 | 0.0 | 2.6 | 0.00 | 0.00 | 0.00 | 61 | 1014.6 |
| 20260504030051 | 46 | 122 | 0.0 | 2.6 | 0.00 | 0.00 | 0.00 | 61 | 1014.7 |
| 20260504024551 | 45 | 130 | 0.0 | 1.7 | 0.00 | 0.00 | 0.00 | 62 | 1014.7 |
| 20260504023059 | 46 | 132 | 0.0 | 0.9 | 0.00 | 0.00 | 0.00 | 63 | 1014.7 |
| 20260504021552 | 47 | 130 | 0.0 | 2.6 | 0.00 | 0.00 | 0.00 | 61 | 1014.8 |
| 20260504020049 | 48 | 138 | 0.9 | 3.5 | 0.00 | 0.00 | 0.00 | 59 | 1014.7 |
| 20260504014600 | 47 | 152 | 0.9 | 1.7 | 0.00 | 0.00 | 0.00 | 61 | 1014.7 |
| 20260504013051 | 47 | 152 | 0.0 | 1.7 | 0.00 | 0.00 | 0.00 | 61 | 1014.5 |
| 20260504011549 | 47 | 152 | 0.0 | 1.7 | 0.00 | 0.00 | 0.00 | 60 | 1014.5 |
| 20260504010053 | 47 | 137 | 0.9 | 2.6 | 0.00 | 0.00 | 0.00 | 58 | 1014.4 |
| 20260504004552 | 47 | 360 | 0.0 | 0.0 | 0.00 | 0.00 | 0.00 | 61 | 1014.2 |
| 20260504003055 | 48 | 360 | 0.0 | 0.0 | 0.00 | 0.00 | 0.00 | 59 | 1014.2 |
| 20260504001602 | 49 | 360 | 0.0 | 0.0 | 0.00 | 0.00 | 0.00 | 56 | 1014.1 |
| 20260504000056 | 51 | 360 | 0.0 | 0.0 | 0.00 | 0.00 | 0.00 | 58 | 1013.9 |
| 20260503234545 | 52 | 360 | 0.0 | 0.9 | 0.00 | 0.00 | 0.00 | 55 | 1013.9 |
| 20260503233046 | 52 | 360 | 0.0 | 0.0 | 0.00 | 0.00 | 0.00 | 56 | 1013.8 |
| 20260503231544 | 53 | 360 | 0.0 | 2.6 | 0.00 | 0.00 | 0.00 | 52 | 1013.9 |
| 20260503230048 | 53 | 360 | 0.9 | 4.3 | 0.00 | 0.00 | 0.00 | 51 | 1013.7 |
| 20260503224545 | 54 | 63 | 1.7 | 10.4 | 0.00 | 0.00 | 0.00 | 52 | 1013.6 |
| 20260503223043 | 54 | 82 | 2.6 | 7.8 | 0.00 | 0.00 | 0.00 | 48 | 1013.7 |
| 20260503221551 | 54 | 184 | 4.3 | 8.7 | 0.00 | 0.00 | 0.00 | 52 | 1013.6 |
| 20260503220041 | 54 | 118 | 2.6 | 11.3 | 0.00 | 0.00 | 0.00 | 46 | 1013.6 |
| 20260503214540 | 55 | 78 | 3.5 | 8.7 | 0.00 | 0.00 | 0.00 | 50 | 1013.7 |